CZ-6A DEB, 61828

Orbit data source: Space-Track

CZ-6A DEB, 61828 is space debris in LEO originally from a launch on Tue, 06 Aug 2024 UTC launched from the Taiyaun Space Center, China (TSC). Debris objects in space refer to the collection of defunct objects orbiting the Earth. Examples of debris include non-operational satellites, rocket bodies, and fragments generated from explosions, collisions, or faulty payload assembly.

Loading next visibility...
Identifier
61828, 2024-140ACU
Orbit
LEO
Country
Flag of CNCN / PRC
Related business
Manufacturer
SAST
Mission
Spacecraft
Bus & Motor
Unknown
Mass
Unknown
Launch date (UTC)
2024-08-06 (2 years ago)
Launch vehicle
Unknown
Launch site
Taiyaun Space Center, China (TSC)
Object type
Payload
Rocket body
Debris
Shape & HBR
Unknown shape, 0.1 m
Radar Cross Section
Small (<0.1 m²)

Expand to show TLE details & history
Last TLE update: 12 hours ago

TLE from 12 hours ago
0 CZ-6A DEB
1 61828U 24140ACU 26118.40783682  .00002166  00000-0  11902-2 0  9992
2 61828  88.9719 280.4031 0125843  58.4154 302.9241 14.07421481 83494
Epoch: 2026-04-28T09:47Z
TLE epoch observation values (Epoch: 2026-04-28T09:47:17.101Z)
Latitude
-0.00002°
Longitude
-82.80174°
Altitude
822.486 km
Speed
7.467 km/s
True Right ascension
18h 41m 36s
True Declination
0° 00' 00"
Sunlit
Object was in daylight at epoch
Visualization orbit readout
Latitude
Unknown
Longitude
Unknown
Altitude
Unknown
Speed
Unknown
Apparent Right ascension
Unknown
Apparent Declination
Unknown
Sunlit
N/A
Visualization observer readout
Local Sidereal Time
05:04:04
Azimuth
Unknown
Elevation
Unknown
Doppler factor
Unknown
Orbital elements
Apogee altitude
956.33 km
Perigee altitude
774.026 km
Semi-major axis
7,243.315 km
Eccentricity
0.01258
Inclination
88.9719°
RAAN
280.4031°
Arg. of periapsis
58.4154°
True anomaly
301.70331°
Mean anomaly
302.9241°
Eccentric anomaly
302.31474°
Mean motion
3.52077 °/min
Orbital period
102.25 mins
BSTAR
0.0011902
Loading maneuver chart data...
Computing Atmospheric mass density...
Loading historical data...
Loading historical data...
Loading historical data...
Loading historical data...
Loading historical data...
Loading historical data...
Loading historical data...

Documentation

Showing up to 5 results
|